Orbital Elements at Epoch 2459200.5 (2020-Dec-17.0) TDB
Reference: JPL 19 (heliocentric ecliptic J2000)
Element | Value | Uncertainty (1-sigma) | Units |
e | .1964339172134014 | 5.9439e-08 | |
a | 2.553838740590424 | 1.3255e-08 | au |
q | 2.052178192844908 | 1.5551e-07 | au |
i | 3.850929827159125 | 6.3957e-06 | deg |
node | 311.5070668866589 | 5.4198e-05 | deg |
peri | 318.2789305604531 | 5.5572e-05 | deg |
M | 224.8863920890531 | 1.1863e-05 | deg |
tp | 2459759.980846391112 (2022-Jun-29.48084639) | 5.0699e-05 | TDB |
period | 1490.694444585859 4.08 | 1.1605e-05 3.177e-08 | d yr |
n | .2414981831504808 | 1.8801e-09 | deg/d |
Q | 3.055499288335941 | 1.5858e-08 | au |
|
| | Orbit Determination Parameters
Additional Information
|